CZ-3B R/B

基本信息
目录编号:
58254
目录名称:
CZ-3B R/B
国际标识:
2023-172B
轨道中心:
EARTH
物体状态:
已陨落(2024-04-22)
发射日期:
2023-11-09 UTC
国别:
中国 (CN)
轨道信息
数据来源: 国际轨道数据
星历时间: 2024-04-22T04:12:04+0800
半长轴: 7081.314km
偏心率: 0.0858977
轨道倾角: 28.047°
近地点辐角: 342.289°
升交点赤经: 117.875°
平近点角: 190.945°
近地点: 94.91km
远地点: 1311.448km
周期: 98.839分钟
每日圈数: 14.569076
详细信息
发射场:
XSC
轨道高度:
LEO
数据来源:
AOE Integration Group
参考系:
TEME
时间系统:
UTC
历元类型:
SGP4
2D轨道图
3D轨道图
轨道高度分析图
轨道倾角分析图
轨道综合分析图
查看轨道综合分析图